Home > Weather > Jaipur > Past weeks

Flag for India Weather for the Past 2 Weeks in Jaipur, Rajasthan, India

Now
64 °F

Haze.


Feels Like: 64 °F
Forecast: 54 / 77 °F
Wind: 9 mph from Northeast

Location: Jaipur / Sanganer

Current Time: Feb 13, 2016 at 11:00:47 PM

Latest Report: Feb 13, 2016 at 10:00 PM


Visibility: 2 mi

Pressure: 30.04 "Hg

Humidity: 49%

Dew point: 45 °F

Location of JaipurLocation

Historic Weather in Jaipur — Graph

°F

Jaipur Temperature Yesterday

Maximum temperature yesterday: 79 °F (at 4:00 PM)
Minimum temperature yesterday: 61 °F (at 7:00 AM)
Average temperature yesterday: 69 °F

High & Low Weather Summary for the Past Weeks

 TemperatureHumidityPressure
High82 °F (Jan 30, 4:00 PM)94% (Jan 30, 6:00 AM)30.18 "Hg (Jan 30, 6:00 AM)
Low48 °F (Feb 3, 6:00 AM)11% (Feb 11, 3:00 PM)29.80 "Hg (Feb 4, 9:00 PM)
Average66 °F42%30.01 "Hg
* Reported Jan 29 9:00 PM — Feb 13 9:00 PM, Jaipur, Weather by CustomWeather, © 2016

Note: Actual official high and low records may vary slightly from our data, if they occured in-between our weather recording intervals... More about our weather records

Advertising

Jaipur Weather History for the Previous 24 Hours

 ConditionsComfort  
Time TempWeatherWind HumidityBarometerVisibility
9:00 PM
Sat, Feb 13
66 °FHaze.10 mph49%30.04 "Hg2 mi
8:00 PM68 °FHaze.10 mph46%30.01 "Hg2 mi
7:00 PM72 °FHaze.2 mph23%29.98 "Hg2 mi
6:00 PM73 °FHaze.5 mph20%29.95 "Hg2 mi
5:30 PM75 °FHaze.8 mph15%29.95 "Hg3 mi
5:00 PM77 °FHaze.8 mph13%29.95 "Hg2 mi
4:00 PM77 °FHaze.8 mph17%29.95 "Hg2 mi
3:30 PM77 °FHaze.8 mph18%29.95 "Hg2 mi
3:00 PM75 °FHaze.9 mph18%29.95 "Hg2 mi
2:00 PM75 °FHaze.8 mph19%29.95 "Hg1 mi
12:30 PM73 °FHaze.6 mph23%29.98 "Hg1 mi
12:00 PM73 °FHaze.6 mph25%29.98 "Hg1 mi
11:00 AM72 °FHaze.5 mph29%30.01 "Hg1 mi
10:00 AM68 °FHaze.8 mph33%30.01 "Hg1 mi
9:00 AM66 °FHaze.1 mph49%29.98 "Hg1 mi
8:00 AM59 °FFog.No wind72%29.95 "Hg1 mi
7:00 AM57 °FFog.No wind82%29.92 "Hg1 mi
6:00 AM59 °FFog.No wind82%29.92 "Hg1 mi
5:00 AM61 °FClear.No wind77%29.89 "Hg1 mi
3:00 AM61 °FHaze.No wind72%29.89 "Hg1 mi
11:00 PM
Fri, Feb 12
66 °FHaze.6 mph52%29.92 "Hg1 mi
Weather by CustomWeather, © 2016

See weather overviewHow to use our weather pages